sat.trackr.live / text

‹ back to catalog

STARLINK-3141

NORAD 49459 · 2021-104BD

PAYLOAD ACTIVE UNKNOWN

§ Identity

Operator
Country
US
Launch date
2021-11-13
Launch site
AFETR
Launch vehicle
Mass (kg)
RCS (m²)

Purposes: comms

External: N2YO · Heavens-Above · Gunter

§ Orbital elements

Epoch: 2026-09-03T03:05:06.757152Z

Period
93.79 min
Inclination
53.1580°
Eccentricity
0.0001088
Mean motion
15.35390396 rev/d
Perigee alt
459.0 km
Apogee alt
460.5 km
Semi-major
6,837.9 km
B*
-1.9409e-5
RAAN
133.7889°
Arg perigee
94.5552°
Mean anomaly
265.5575°
Rev number
26,568

§ Raw data

STARLINK-31411 49459U 21104BD  26246.12855043 -.00001057  00000+0 -19409-4 0  99982 49459  53.1580 133.7889 0001088  94.5552 265.5575 15.35390396265687

JSON: /api/v1/satellites/49459 · /tle

For live sub-satellite position, see the globe view (requires WebGL).

§ Visibility from observer

Set your observer location to see the next 7 days of passes ≥ 10°. The values pass through the URL so the page stays shareable.

No JS? Fill the form by hand. The geolocation button needs JavaScript.